User: anonymous   Login
Location: Brede
(50.9167°N, 0.6000°E)
Time: 11:24:29
(UTC+00:00)
Language:

Cosmos 2082 - Orbit

View from above orbital plane
View from above orbital plane
View from above satellite
View from above satellite

Ground track
Ground track

The orbit data is extracted from the following two-line orbital elements,

1 20624U 90046A   20296.94833985 -.00000318 +00000-0 -14101-3 0  9995
2 20624 071.0405 172.9953 0016887 314.3361 045.6377 14.14362868569993
Epoch (UTC): 22 October 2020 22:45:36
Eccentricity: 0.0016887
inclination: 71.0405°
perigee height: 832 km
apogee height: 856 km
right ascension of ascending node: 172.9953°
argument of perigee: 314.3361°
revolutions per day: 14.14362868
mean anomaly at epoch: 45.6377°
orbit number at epoch: 56999

The dashed part of the orbit path shows where the satellite is in the earth's shadow,  

DLR